TimeCST,TemperatureF,Dew PointF,Humidity,Sea Level PressureIn,VisibilityMPH,Wind Direction,Wind SpeedMPH,Gust SpeedMPH,PrecipitationIn,Events,Conditions,WindDirDegrees,DateUTC
12:05 AM,39.2,37.4,93,30.36,9.0,Calm,Calm,-,N/A,,Clear,0,2013-11-08 06:05:00
12:53 AM,39.0,37.9,96,30.37,5.0,Calm,Calm,-,N/A,,Clear,0,2013-11-08 06:53:00
1:53 AM,37.9,37.0,97,30.36,10.0,Calm,Calm,-,N/A,,Clear,0,2013-11-08 07:53:00
2:53 AM,37.9,37.0,97,30.35,10.0,Calm,Calm,-,N/A,,Clear,0,2013-11-08 08:53:00
3:53 AM,37.0,36.0,96,30.35,8.0,Calm,Calm,-,N/A,,Clear,0,2013-11-08 09:53:00
4:53 AM,37.0,36.0,96,30.35,10.0,Calm,Calm,-,N/A,,Clear,0,2013-11-08 10:53:00
5:53 AM,37.9,37.0,97,30.35,10.0,Calm,Calm,-,N/A,,Clear,0,2013-11-08 11:53:00
6:53 AM,41.0,39.9,96,30.36,10.0,Calm,Calm,-,N/A,,Clear,0,2013-11-08 12:53:00
7:53 AM,44.1,42.1,93,30.38,10.0,Calm,Calm,-,N/A,,Clear,0,2013-11-08 13:53:00
8:53 AM,48.9,42.1,77,30.39,10.0,Calm,Calm,-,N/A,,Clear,0,2013-11-08 14:53:00
9:53 AM,54.0,42.1,64,30.39,10.0,Variable,3.5,-,N/A,,Clear,0,2013-11-08 15:53:00
10:53 AM,59.0,39.0,48,30.37,10.0,East,8.1,-,N/A,,Clear,90,2013-11-08 16:53:00
11:53 AM,61.0,39.0,44,30.32,10.0,East,8.1,-,N/A,,Clear,100,2013-11-08 17:53:00
12:53 PM,63.0,39.0,41,30.29,10.0,North,-9999.0,-,N/A,,Clear,0,2013-11-08 18:53:00
1:53 PM,63.0,39.0,41,30.26,10.0,ENE,5.8,-,N/A,,Clear,60,2013-11-08 19:53:00
2:53 PM,64.0,36.0,35,30.25,10.0,Calm,Calm,-,N/A,,Clear,0,2013-11-08 20:53:00
3:53 PM,64.0,37.0,37,30.25,10.0,Variable,3.5,-,N/A,,Clear,0,2013-11-08 21:53:00
4:53 PM,55.9,45.0,67,30.24,10.0,Calm,Calm,-,N/A,,Clear,0,2013-11-08 22:53:00
5:53 PM,51.1,46.0,83,30.24,10.0,Calm,Calm,-,N/A,,Clear,0,2013-11-08 23:53:00
6:53 PM,48.0,46.0,93,30.25,10.0,Calm,Calm,-,N/A,,Clear,0,2013-11-09 00:53:00
7:53 PM,48.9,46.0,90,30.24,10.0,Calm,Calm,-,N/A,,Clear,0,2013-11-09 01:53:00
8:53 PM,48.0,46.0,93,30.23,10.0,Calm,Calm,-,N/A,,Clear,0,2013-11-09 02:53:00
9:53 PM,46.9,45.0,93,30.22,10.0,Calm,Calm,-,N/A,,Clear,0,2013-11-09 03:53:00
10:53 PM,46.0,45.0,96,30.21,9.0,Calm,Calm,-,N/A,,Clear,0,2013-11-09 04:53:00
11:53 PM,46.9,45.0,93,30.21,10.0,Calm,Calm,-,N/A,,Clear,0,2013-11-09 05:53:00